When you browse on this site, cookies collect data to enhance your experience and personalize the content and advertising you see.
Visit our Privacy Policy to learn more. By continuing to use the site, you agree to this use of cookies and data.
  • In France
  • List of Countries
  • For 7 days
  • Water Temperature
  • Satellite Maps
  • Weather Map
  • Weather Widgets
  • user-avatar
    Login

    Hourly Weather Nikoncy

    Today, 19 February, Tuesday

    Time Temperature Precipitation Wind Pressure Humidity
    00:00 -6°C° 0 mm 2 mps 751 mmHg 87%
    01:00 -7°C° 0 mm 3 mps 751 mmHg 86%
    02:00 -7°C° 0 mm 2 mps 750 mmHg 85%
    03:00 -8°C° 0 mm 3 mps 750 mmHg 84%
    04:00 -8°C° 0 mm 3 mps 749 mmHg 83%
    05:00 -9°C° 0 mm 4 mps 749 mmHg 82%
    06:00 -9°C° 0 mm 4 mps 748 mmHg 81%
    07:00 -8°C° 0 mm 4 mps 748 mmHg 81%
    08:00 -8°C° 0 mm 4 mps 748 mmHg 81%
    09:00 -7°C° 0 mm 4 mps 747 mmHg 79%
    10:00 -5°C° 0 mm 5 mps 747 mmHg 78%
    11:00 -4°C° 0 mm 5 mps 746 mmHg 76%
    12:00 -2°C° 0 mm 5 mps 745 mmHg 78%
    13:00 -1°C° 0 mm 5 mps 745 mmHg 80%
    14:00 -1°C° 0 mm 5 mps 744 mmHg 82%
    15:00 -1°C° 0 mm 5 mps 743 mmHg 83%
    16:00 -1°C° 0 mm 5 mps 743 mmHg 85%
    17:00 -2°C° 0 mm 5 mps 742 mmHg 87%
    18:00 -2°C° 0 mm 5 mps 741 mmHg 87%
    19:00 -2°C° 0 mm 5 mps 741 mmHg 88%
    20:00 -2°C° 0 mm 5 mps 740 mmHg 89%
    21:00 -1°C° 0 mm 5 mps 739 mmHg 90%
    22:00 -1°C° 0 mm 5 mps 739 mmHg 91%
    23:00 0°C° 0 mm 5 mps 738 mmHg 93%

    Tomorrow, 20 February, Wednesday

    Time Temperature Precipitation Wind Pressure Humidity
    00:00 0°C° 0 mm 5 mps 737 mmHg 92%
    01:00 -1°C° 0 mm 5 mps 737 mmHg 92%
    02:00 -1°C° 0 mm 5 mps 737 mmHg 92%
    03:00 -1°C° 0.2 mm 4 mps 736 mmHg 92%
    04:00 -1°C° 0.2 mm 4 mps 736 mmHg 93%
    05:00 -1°C° 0.2 mm 4 mps 736 mmHg 93%
    06:00 -1°C° 0 mm 4 mps 736 mmHg 93%
    07:00 -1°C° 0 mm 4 mps 736 mmHg 94%
    08:00 -1°C° 0 mm 4 mps 736 mmHg 94%
    09:00 0°C° 0.2 mm 4 mps 735 mmHg 94%
    10:00 0°C° 0.2 mm 4 mps 735 mmHg 93%
    11:00 0°C° 0.2 mm 5 mps 735 mmHg 93%
    12:00 0°C° 0.1 mm 5 mps 735 mmHg 92%
    13:00 0°C° 0.1 mm 5 mps 735 mmHg 91%
    14:00 0°C° 0.1 mm 5 mps 735 mmHg 90%
    15:00 0°C° 0.1 mm 5 mps 735 mmHg 90%
    16:00 0°C° 0.1 mm 5 mps 734 mmHg 89%
    17:00 0°C° 0.1 mm 5 mps 734 mmHg 89%
    18:00 0°C° 0.4 mm 5 mps 734 mmHg 89%
    19:00 0°C° 0.4 mm 5 mps 734 mmHg 89%
    20:00 0°C° 0.4 mm 5 mps 734 mmHg 89%
    21:00 -2°C° 0.1 mm 5 mps 734 mmHg 87%
    22:00 -4°C° 0.1 mm 5 mps 734 mmHg 85%
    23:00 -6°C° 0.1 mm 5 mps 734 mmHg 82%

    Day after tomorrow, 21 February, Thursday

    Time Temperature Precipitation Wind Pressure Humidity
    00:00 -5°C° 0.2 mm 5 mps 735 mmHg 82%
    01:00 -5°C° 0.2 mm 6 mps 735 mmHg 82%
    02:00 -4°C° 0.2 mm 6 mps 736 mmHg 82%
    03:00 -5°C° 0.1 mm 6 mps 736 mmHg 81%
    04:00 -5°C° 0.1 mm 6 mps 737 mmHg 80%
    05:00 -6°C° 0.1 mm 6 mps 737 mmHg 79%
    06:00 -6°C° 0.1 mm 6 mps 738 mmHg 76%
    07:00 -8°C° 0.1 mm 6 mps 738 mmHg 74%
    08:00 -8°C° 0.1 mm 6 mps 739 mmHg 72%
    09:00 -8°C° 0.1 mm 6 mps 739 mmHg 71%
    10:00 -8°C° 0.1 mm 6 mps 740 mmHg 70%
    11:00 -8°C° 0.1 mm 6 mps 740 mmHg 69%
    12:00 -8°C° 0.1 mm 6 mps 741 mmHg 69%
    13:00 -8°C° 0.1 mm 7 mps 741 mmHg 68%
    14:00 -7°C° 0.1 mm 7 mps 742 mmHg 68%
    15:00 -8°C° 0 mm 6 mps 742 mmHg 69%
    16:00 -8°C° 0 mm 6 mps 743 mmHg 71%
    17:00 -9°C° 0 mm 6 mps 744 mmHg 72%
    18:00 -9°C° 0 mm 6 mps 744 mmHg 73%
    19:00 -10°C° 0 mm 6 mps 745 mmHg 73%
    20:00 -10°C° 0 mm 6 mps 746 mmHg 73%
    21:00 -11°C° 0 mm 6 mps 746 mmHg 73%
    22:00 -11°C° 0 mm 5 mps 747 mmHg 73%
    23:00 -12°C° 0 mm 5 mps 747 mmHg 73%

    22 February, Friday

    Time Temperature Precipitation Wind Pressure Humidity
    00:00 -12°C° 0 mm 5 mps 748 mmHg 73%
    01:00 -13°C° 0 mm 5 mps 749 mmHg 73%
    02:00 -13°C° 0 mm 5 mps 750 mmHg 73%
    03:00 -13°C° 0 mm 5 mps 750 mmHg 74%
    04:00 -14°C° 0 mm 5 mps 751 mmHg 74%
    05:00 -14°C° 0 mm 5 mps 751 mmHg 75%
    06:00 -14°C° 0 mm 5 mps 752 mmHg 74%
    07:00 -14°C° 0 mm 5 mps 753 mmHg 72%
    08:00 -14°C° 0 mm 5 mps 753 mmHg 71%
    09:00 -13°C° 0 mm 5 mps 754 mmHg 70%
    10:00 -12°C° 0 mm 5 mps 754 mmHg 69%
    11:00 -11°C° 0 mm 5 mps 754 mmHg 68%
    12:00 -10°C° 0 mm 5 mps 754 mmHg 65%
    13:00 -10°C° 0 mm 6 mps 754 mmHg 61%
    14:00 -9°C° 0 mm 6 mps 754 mmHg 58%
    15:00 -9°C° 0 mm 6 mps 754 mmHg 62%
    16:00 -10°C° 0 mm 6 mps 754 mmHg 66%
    17:00 -10°C° 0 mm 5 mps 754 mmHg 70%
    18:00 -11°C° 0 mm 5 mps 754 mmHg 72%
    19:00 -11°C° 0 mm 5 mps 755 mmHg 73%
    20:00 -12°C° 0 mm 5 mps 755 mmHg 74%
    21:00 -12°C° 0 mm 5 mps 756 mmHg 74%
    22:00 -13°C° 0 mm 5 mps 756 mmHg 74%
    23:00 -14°C° 0 mm 5 mps 757 mmHg 73%

    23 February, Saturday

    Time Temperature Precipitation Wind Pressure Humidity
    00:00 -14°C° 0 mm 4 mps 757 mmHg 74%
    01:00 -14°C° 0 mm 4 mps 757 mmHg 75%
    02:00 -15°C° 0 mm 4 mps 758 mmHg 76%
    03:00 -15°C° 0 mm 4 mps 758 mmHg 78%
    04:00 -15°C° 0 mm 4 mps 758 mmHg 79%
    05:00 -14°C° 0 mm 3 mps 758 mmHg 81%
    06:00 -14°C° 0 mm 3 mps 758 mmHg 82%
    07:00 -14°C° 0 mm 3 mps 759 mmHg 83%
    08:00 -14°C° 0 mm 3 mps 759 mmHg 83%
    09:00 -14°C° 0 mm 3 mps 759 mmHg 80%
    10:00 -13°C° 0 mm 3 mps 759 mmHg 77%
    11:00 -12°C° 0 mm 3 mps 759 mmHg 74%
    12:00 -10°C° 0 mm 3 mps 759 mmHg 71%
    13:00 -9°C° 0 mm 3 mps 759 mmHg 68%
    14:00 -8°C° 0 mm 3 mps 759 mmHg 65%
    15:00 -9°C° 0 mm 3 mps 759 mmHg 68%
    16:00 -8°C° 0 mm 2 mps 759 mmHg 71%
    17:00 -9°C° 0 mm 2 mps 759 mmHg 75%
    18:00 -9°C° 0 mm 2 mps 759 mmHg 76%
    19:00 -9°C° 0 mm 2 mps 760 mmHg 78%
    20:00 -9°C° 0 mm 2 mps 760 mmHg 79%
    21:00 -8°C° 0 mm 1 mps 760 mmHg 81%
    22:00 -9°C° 0 mm 1 mps 760 mmHg 82%
    23:00 -9°C° 0 mm 1 mps 760 mmHg 83%

    24 February, Sunday

    Time Temperature Precipitation Wind Pressure Humidity
    00:00 -9°C° 0 mm 1 mps 760 mmHg 83%
    01:00 -9°C° 0 mm 1 mps 760 mmHg 82%
    02:00 -9°C° 0 mm 0 mps 761 mmHg 82%
    03:00 -9°C° 0 mm 0 mps 761 mmHg 81%
    04:00 -10°C° 0 mm 0 mps 760 mmHg 80%
    05:00 -10°C° 0 mm 0 mps 760 mmHg 79%
    06:00 -9°C° 0 mm 1 mps 761 mmHg 78%
    07:00 -9°C° 0 mm 1 mps 761 mmHg 77%
    08:00 -9°C° 0 mm 1 mps 761 mmHg 76%
    09:00 -7°C° 0 mm 1 mps 761 mmHg 75%
    10:00 -6°C° 0 mm 1 mps 761 mmHg 74%
    11:00 -4°C° 0 mm 1 mps 761 mmHg 74%
    12:00 -5°C° 0 mm 2 mps 761 mmHg 76%
    13:00 -4°C° 0 mm 2 mps 761 mmHg 78%
    14:00 -3°C° 0 mm 2 mps 760 mmHg 80%
    15:00 -4°C° 0 mm 2 mps 760 mmHg 84%
    16:00 -5°C° 0 mm 2 mps 760 mmHg 88%
    17:00 -5°C° 0 mm 2 mps 759 mmHg 92%
    18:00 -5°C° 0 mm 2 mps 759 mmHg 92%
    19:00 -5°C° 0 mm 2 mps 759 mmHg 92%
    20:00 -5°C° 0 mm 2 mps 759 mmHg 93%
    21:00 -5°C° 0 mm 2 mps 758 mmHg 93%
    22:00 -6°C° 0 mm 3 mps 758 mmHg 93%
    23:00 -5°C° 0 mm 3 mps 758 mmHg 93%
    Show more